Bega Observation History
Time Wind Speed Temp Pressure Rel. Hum Rain
03/06:30am WSW 12-23 kts 12.6°c 1019.4 hPa 53% 0.0mm
03/06:21am WSW 15-28 kts 13.0°c 1019.1 hPa 51% 0.0mm
03/06:00am SW 14-24 kts 13.1°c 1018.4 hPa 51% 0.0mm
03/05:43am SW 15-34 kts 13.4°c 1017.6 hPa 50% 0.0mm
03/05:30am WSW 14-22 kts 13.3°c 1017.5 hPa 51% 0.0mm
03/05:00am WSW 14-25 kts 13.2°c 1017.5 hPa 55% 0.0mm
03/04:30am SW 15-25 kts 13.7°c 1017.1 hPa 55% 0.0mm
03/04:27am WSW 15-25 kts 13.6°c 1017.0 hPa 55% 0.0mm
03/04:00am WSW 11-22 kts 14.2°c 1016.2 hPa 51% 0.0mm
03/03:30am SW 9-13 kts 14.3°c 1015.9 hPa 48% 0.0mm
03/03:00am WSW 10-15 kts 14.2°c 1015.1 hPa 48% 0.0mm
03/02:30am WSW 10-16 kts 14.3°c 1015.0 hPa 48% 0.0mm
03/02:00am NNW 5-14 kts 10.5°c 1015.4 hPa 63% 0.0mm
03/01:30am WSW 7-17 kts 11.0°c 1015.3 hPa 63% 0.0mm
03/01:25am W 6-14 kts 9.9°c 1015.2 hPa 69% 0.0mm
03/01:00am SSW 4-6 kts 4.8°c 1015.6 hPa 83% 0.0mm
03/12:30am WSW 7-14 kts 4.7°c 1015.4 hPa 86% 0.0mm
03/12:00am S 2-5 kts 2.8°c 1015.3 hPa 93% 0.0mm
Time Wind Speed Temp Pressure Rel. Hum Rain
02/11:30pm CALM 0-4 kts 3.2°c 1015.5 hPa 89% 0.0mm
02/11:00pm CALM 0 kts 4.5°c 1015.9 hPa 90% 0.0mm
02/10:30pm S 3-5 kts 4.0°c 1015.9 hPa 90% 0.0mm
02/10:00pm CALM 0-3 kts 4.9°c 1015.5 hPa 87% 0.0mm
02/09:30pm CALM 0 kts 6.1°c 1015.8 hPa 85% 0.0mm
02/09:00pm SSE 1-3 kts 5.7°c 1015.9 hPa 82% 0.0mm
02/08:30pm NNE 1-4 kts 7.3°c 1015.9 hPa 79% 0.0mm
02/08:00pm CALM 0 kts 7.5°c 1015.7 hPa 76% 0.0mm
02/07:30pm S 3-5 kts 8.2°c 1015.4 hPa 76% 0.0mm
02/07:00pm CALM 0 kts 8.7°c 1015.0 hPa 70% 0.0mm
02/06:30pm NW 3-5 kts 11.6°c 1014.8 hPa 62% 0.0mm
02/06:00pm W 3-4 kts 12.8°c 1014.8 hPa 57% 0.0mm
02/05:30pm SW 4-5 kts 11.6°c 1015.0 hPa 58% 0.0mm
02/05:00pm W 5-7 kts 13.8°c 1014.8 hPa 52% 0.0mm
02/04:30pm WSW 6-9 kts 15.0°c 1014.5 hPa 48% 0.0mm
02/04:00pm SW 9-12 kts 16.2°c 1014.4 hPa 45% 0.0mm
02/03:30pm WSW 9-15 kts 16.5°c 1014.2 hPa 44% 0.0mm
02/03:00pm WSW 9-13 kts 16.5°c 1014.2 hPa 44% 0.0mm
02/02:30pm SW 12-19 kts 16.4°c 1013.9 hPa 45% 0.0mm
02/02:00pm WSW 13-18 kts 16.2°c 1013.9 hPa 44% 0.0mm
02/01:30pm WSW 14-21 kts 16.1°c 1014.0 hPa 43% 0.0mm
02/01:00pm WSW 11-18 kts 16.2°c 1014.1 hPa 42% 0.0mm
02/12:30pm SW 13-18 kts 15.9°c 1014.2 hPa 41% 0.0mm
02/12:00pm SW 12-19 kts 15.7°c 1014.5 hPa 40% 0.0mm
02/11:30am WSW 11-17 kts 15.3°c 1014.7 hPa 42% 0.0mm
02/11:00am SW 13-18 kts 14.4°c 1015.1 hPa 44% 0.0mm
02/10:30am WSW 12-18 kts 13.8°c 1015.3 hPa 47% 0.0mm
02/10:00am WSW 10-14 kts 13.4°c 1015.5 hPa 48% 0.0mm
02/09:30am WSW 12-17 kts 12.8°c 1015.4 hPa 50% 0.0mm
02/09:00am WSW 11-17 kts 12.0°c 1015.4 hPa 52% 0.0mm
02/08:30am WSW 12-21 kts 11.3°c 1015.2 hPa 54% 0.0mm
02/08:00am WSW 7-10 kts 10.5°c 1015.2 hPa 57% 0.0mm
02/07:30am WSW 8-18 kts 10.2°c 1015.0 hPa 58% 0.0mm
02/07:00am SW 12-17 kts 10.6°c 1014.5 hPa 59% 0.0mm
02/06:36am WSW 15-26 kts 11.2°c 1013.8 hPa 56% 0.0mm
02/06:30am SW 15-20 kts 11.3°c 1013.8 hPa 56% 0.0mm
02/06:00am WSW 10-14 kts 11.6°c 1013.3 hPa 59% 0.0mm
02/05:30am WSW 11-17 kts 11.7°c 1012.4 hPa 59% 0.0mm
02/05:00am SW 8-11 kts 11.3°c 1012.1 hPa 61% 0.0mm
02/04:30am WSW 11-16 kts 11.6°c 1011.6 hPa 60% 0.0mm
02/04:00am WSW 14-22 kts 11.8°c 1011.4 hPa 60% 0.0mm
02/03:30am WSW 9-13 kts 11.2°c 1011.4 hPa 59% 0.0mm
02/03:00am WSW 11-15 kts 12.0°c 1011.3 hPa 55% 0.0mm
02/02:30am SW 14-22 kts 11.9°c 1011.0 hPa 54% 0.0mm
02/02:00am WSW 8-13 kts 12.6°c 1010.7 hPa 49% 0.0mm
02/01:30am WSW 7-11 kts 12.7°c 1010.8 hPa 49% 0.0mm
02/01:00am WSW 11-18 kts 12.8°c 1010.6 hPa 49% 0.0mm
02/12:30am WSW 8-11 kts 12.5°c 1010.6 hPa 50% 0.0mm
02/12:00am SW 6-10 kts 12.0°c 1010.6 hPa 51% 0.0mm
Time Wind Speed Temp Pressure Rel. Hum Rain
01/11:30pm SW 4-9 kts 12.1°c 1010.4 hPa 50% 0.0mm
01/11:00pm SW 6-9 kts 12.1°c 1010.3 hPa 50% 0.0mm
01/10:30pm WSW 10-16 kts 12.9°c 1010.0 hPa 48% 0.0mm
01/10:00pm WSW 9-15 kts 13.1°c 1010.0 hPa 48% 0.0mm
01/09:30pm WSW 6-9 kts 13.0°c 1009.7 hPa 47% 0.0mm
01/09:00pm W 6-9 kts 12.9°c 1009.6 hPa 47% 0.0mm
01/08:30pm SW 7-10 kts 12.9°c 1008.9 hPa 47% 0.0mm
01/08:00pm SW 3-7 kts 13.4°c 1008.4 hPa 45% 0.0mm
01/07:30pm W 6-9 kts 13.2°c 1007.7 hPa 45% 0.0mm
01/07:00pm W 8-12 kts 13.7°c 1007.5 hPa 43% 0.0mm
01/06:30pm W 9-15 kts 14.5°c 1006.9 hPa 42% 0.0mm
01/06:00pm WNW 7-13 kts 14.7°c 1006.5 hPa 39% 0.0mm
01/05:30pm W 8-12 kts 15.3°c 1006.1 hPa 38% 0.0mm
01/05:00pm SW 8-11 kts 15.0°c 1005.6 hPa 50% 0.0mm
01/04:30pm SW 8-10 kts 16.0°c 1004.8 hPa 48% 0.0mm
01/04:00pm WSW 10-14 kts 17.2°c 1004.4 hPa 44% 0.0mm
01/03:30pm NNW 7-12 kts 18.0°c 1004.2 hPa 35% 0.0mm
01/03:00pm N 9-14 kts 18.1°c 1004.0 hPa 40% 0.0mm
01/02:30pm NNW 5-7 kts 18.5°c 1003.7 hPa 40% 0.0mm
01/02:00pm N 4-5 kts 19.1°c 1003.6 hPa 38% 0.0mm
01/01:30pm NNE 3-6 kts 19.7°c 1003.8 hPa 39% 0.0mm
01/01:00pm N 5-7 kts 18.8°c 1003.9 hPa 45% 0.0mm
01/12:30pm N 6-9 kts 18.2°c 1004.0 hPa 46% 0.0mm
01/12:00pm NNE 6-8 kts 18.8°c 1004.0 hPa 46% 0.0mm
01/11:30am NNE 6-8 kts 18.4°c 1004.2 hPa 48% 0.0mm
01/11:00am NE 6-8 kts 18.9°c 1004.9 hPa 47% 0.0mm
01/10:30am E 1-4 kts 16.0°c 1005.2 hPa 64% 0.0mm
01/10:00am CALM 0 kts 14.9°c 1005.4 hPa 63% 0.0mm
01/09:30am N 3-5 kts 14.1°c 1005.8 hPa 64% 0.0mm
01/09:00am E 1-4 kts 13.7°c 1006.1 hPa 65% 0.0mm
01/08:30am SW 4-6 kts 9.3°c 1006.4 hPa 79% 0.0mm
01/08:00am NW 2-6 kts 8.8°c 1006.5 hPa 76% 0.0mm
01/07:30am SSW 4-6 kts 8.4°c 1006.7 hPa 77% 0.0mm
01/07:00am S 3-4 kts 9.6°c 1006.4 hPa 74% 0.0mm
01/06:30am W 5-9 kts 10.5°c 1006.5 hPa 67% 0.0mm
01/06:00am NW 8-11 kts 13.0°c 1006.4 hPa 62% 0.0mm
01/05:30am NNW 8-10 kts 13.2°c 1006.5 hPa 60% 0.0mm
01/05:00am NNW 5-7 kts 13.5°c 1006.7 hPa 60% 0.0mm
01/04:30am N 5-8 kts 13.3°c 1006.8 hPa 60% 0.0mm
01/04:00am N 4-7 kts 13.6°c 1006.9 hPa 60% 0.0mm
01/03:30am N 7-10 kts 14.3°c 1006.9 hPa 58% 0.0mm
01/03:00am N 7-11 kts 14.8°c 1007.7 hPa 56% 0.0mm
01/02:30am NNE 3-7 kts 14.4°c 1008.0 hPa 56% 0.0mm
01/02:00am NNE 3-8 kts 14.9°c 1008.3 hPa 55% 0.0mm
01/01:30am N 7-9 kts 15.4°c 1008.6 hPa 52% 0.0mm
01/01:00am NNW 9-12 kts 15.6°c 1009.0 hPa 51% 0.0mm
01/12:30am NNW 7-9 kts 15.0°c 1009.3 hPa 53% 0.0mm
01/12:00am N 10-13 kts 15.5°c 1009.7 hPa 52% 0.0mm